Weather History for Akron Canton, OH

Change the Weather History Date:

Friday, March 15, 2013

  Actual Average Record
Temperature  
Mean Temperature 36 °F 37 °F  
Max Temperature 46 °F 46 °F 78 °F (1990)
Min Temperature 25 °F 28 °F 4 °F (1993)
Degree Days  
Heating Degree Days 29 28  
Month to date heating degree days 459 455  
Since 1 July heating degree days 4720 4999  
Cooling Degree Days 0 0  
Month to date cooling degree days 0 0  
Year to date cooling degree days 0 0  
Moisture  
Dew Point 28 °F    
Average Humidity 76    
Maximum Humidity 92    
Minimum Humidity 60    
Precipitation  
Precipitation 0.06 in 0.09 in 0.61 in (2002)
Month to date precipitation 0.94 1.33  
Year to date precipitation 5.13 6.25  
Snow  
Snow T in 0.30 in - ()
Month to date snowfall 4.5 4.8  
Since 1 July snowfall 40.9 41.3  
Snow Depth 0.00 in    
Sea Level Pressure  
Sea Level Pressure 29.96 in    
Wind  
Wind Speed 9 mph (West)    
Max Wind Speed 18 mph    
Max Gust Speed 24 mph    
Visibility 7 miles    
Events Rain    
T = Trace of Precipitation, MM = Missing Value Source: NWS Daily Summary

Daily Weather History Graph

Daily Weather History Graph

Search for Another Location

Airport:

Trip Planner

Search our weather history database for the weather conditions in past years. The results will help you decide how hot, cold, wet, or windy it might be!

Date:

Astronomy

Mar. 15, 2013 Rise Set
Actual Time 7:37 AM EDT 7:32 PM EDT
Civil Twilight 7:09 AM EDT 8:00 PM EDT
Nautical Twilight 6:37 AM EDT 8:32 PM EDT
Astronomical Twilight 6:05 AM EDT 9:04 PM EDT
Moon 9:24 AM EDT (3/15) 11:47 PM EDT (3/15)
Length of Visible Light 12h 50m
Length of Day
11h 55m
Waxing Crescent, 15% of the Moon is Illuminated
Mar 15
Waxing Crescent
Mar 19
First Quarter
Mar 27
Full
Apr 3
Last Quarter
Apr 10
New

Hourly Weather History & Observations

Time (EDT) Temp. Windchill Dew Point Humidity Pressure Visibility Wind Dir Wind Speed Gust Speed Precip Events Conditions
12:51 AM 28.9 °F 23.9 °F 19.9 °F 69% 30.13 in 8.0 mi WSW 4.6 mph - N/A   Scattered Clouds
1:51 AM 28.0 °F 21.7 °F 19.9 °F 72% 30.12 in 8.0 mi SW 5.8 mph - N/A   Clear
2:51 AM 27.0 °F 20.5 °F 19.9 °F 75% 30.11 in 8.0 mi WSW 5.8 mph - N/A   Clear
3:51 AM 27.0 °F 21.6 °F 19.9 °F 75% 30.07 in 8.0 mi WSW 4.6 mph - N/A   Clear
4:51 AM 30.9 °F 24.3 °F 21.0 °F 67% 30.05 in 9.0 mi WSW 6.9 mph - N/A   Scattered Clouds
5:51 AM 32.0 °F 24.2 °F 21.0 °F 64% 30.03 in 9.0 mi WSW 9.2 mph - N/A   Overcast
6:34 AM 32.0 °F 24.8 °F 21.2 °F 64% 29.99 in 9.0 mi SW 8.1 mph - N/A   Overcast
6:51 AM 32.0 °F 24.8 °F 21.9 °F 66% 30.02 in 9.0 mi SW 8.1 mph - N/A   Overcast
7:51 AM 30.0 °F 24.1 °F 21.9 °F 72% 30.01 in 7.0 mi WSW 5.8 mph - N/A   Scattered Clouds
8:23 AM 30.2 °F 22.6 °F 24.8 °F 80% 29.96 in 7.0 mi SW 8.1 mph - N/A   Mostly Cloudy
8:51 AM 32.0 °F 24.2 °F 24.1 °F 73% 29.99 in 7.0 mi SW 9.2 mph - N/A   Mostly Cloudy
9:51 AM 35.1 °F 25.9 °F 26.1 °F 70% 29.98 in 7.0 mi WSW 13.8 mph - N/A   Mostly Cloudy
10:51 AM 37.0 °F 27.4 °F 27.0 °F 67% 29.97 in 6.0 mi WSW 17.3 mph 23.0 mph N/A   Haze
11:51 AM 37.9 °F 29.2 °F 28.0 °F 68% 29.95 in 8.0 mi WSW 15.0 mph - N/A   Overcast
12:51 PM 41.0 °F 34.3 °F 30.0 °F 65% 29.93 in 10.0 mi West 11.5 mph 20.7 mph N/A   Overcast
1:51 PM 43.0 °F 35.7 °F 30.9 °F 62% 29.91 in 10.0 mi West 15.0 mph 19.6 mph N/A   Overcast
2:51 PM 45.0 °F 38.5 °F 32.0 °F 60% 29.89 in 8.0 mi West 13.8 mph 19.6 mph N/A   Overcast
3:51 PM 46.0 °F 40.6 °F 33.1 °F 61% 29.87 in 7.0 mi WNW 11.5 mph 19.6 mph N/A   Overcast
4:51 PM 45.0 °F 40.1 °F 33.1 °F 63% 29.86 in 7.0 mi WNW 9.2 mph - N/A   Overcast
5:51 PM 45.0 °F 38.9 °F 33.1 °F 63% 29.86 in 6.0 mi WNW 12.7 mph - N/A   Haze
6:51 PM 44.1 °F 38.1 °F 33.1 °F 65% 29.86 in 6.0 mi WNW 11.5 mph - N/A   Haze
7:51 PM 43.0 °F 38.2 °F 34.0 °F 71% 29.88 in 6.0 mi WNW 8.1 mph - 0.00 in Rain Light Rain
8:39 PM 41.0 °F 37.1 °F 35.6 °F 81% 29.86 in 4.0 mi NW 5.8 mph - 0.00 in Rain Light Rain
8:51 PM 41.0 °F 37.1 °F 36.0 °F 82% 29.88 in 4.0 mi NW 5.8 mph - 0.01 in Rain Light Rain
9:18 PM 37.4 °F 30.8 °F 35.6 °F 93% 29.86 in 2.5 mi NNE 9.2 mph - 0.00 in Rain Light Rain
9:51 PM 37.0 °F 30.4 °F 34.0 °F 89% 29.89 in 2.5 mi NE 9.2 mph - 0.01 in Rain Light Rain
10:51 PM 36.0 °F 32.1 °F 34.0 °F 93% 29.89 in 2.5 mi NE 4.6 mph - 0.01 in Rain Light Rain
11:51 PM 35.1 °F 30.1 °F 33.1 °F 92% 29.88 in 2.5 mi ENE 5.8 mph - 0.01 in Rain Light Rain